Time,TemperatureF,DewpointF,PressureIn,WindDirection,WindDirectionDegrees,WindSpeedMPH,WindSpeedGustMPH,Humidity,HourlyPrecipIn,Conditions,Clouds,dailyrainin,SoftwareType,DateUTC
2013-02-13 00:04:00,41.5,37.9,30.31,WSW,252,0.0,0.0,87,0.00,,,0.00,Wunderground v.1.12,2013-02-13 08:04:00,
2013-02-13 00:09:00,41.5,38.2,30.31,WSW,252,0.0,0.0,88,0.00,,,0.00,Wunderground v.1.12,2013-02-13 08:09:00,
2013-02-13 00:14:00,41.5,38.2,30.31,WSW,252,0.0,0.0,88,0.00,,,0.00,Wunderground v.1.12,2013-02-13 08:14:00,
2013-02-13 00:20:00,41.3,37.7,30.31,WSW,252,0.0,0.0,87,0.00,,,0.00,Wunderground v.1.12,2013-02-13 08:20:00,
2013-02-13 00:26:00,41.2,37.6,30.31,WSW,252,0.0,0.0,87,0.00,,,0.00,Wunderground v.1.12,2013-02-13 08:26:00,
2013-02-13 00:31:00,41.2,37.9,30.31,WSW,252,0.0,0.0,88,0.00,,,0.00,Wunderground v.1.12,2013-02-13 08:31:00,
2013-02-13 00:36:00,41.2,38.2,30.31,WSW,252,0.0,0.0,89,0.00,,,0.00,Wunderground v.1.12,2013-02-13 08:36:00,
2013-02-13 00:41:00,41.2,37.9,30.31,WSW,252,0.0,0.0,88,0.00,,,0.00,Wunderground v.1.12,2013-02-13 08:41:00,
2013-02-13 00:46:00,41.2,37.9,30.31,WSW,252,0.0,0.0,88,0.00,,,0.00,Wunderground v.1.12,2013-02-13 08:46:00,
2013-02-13 00:51:00,41.1,37.8,30.31,WSW,252,0.0,0.0,88,0.00,,,0.00,Wunderground v.1.12,2013-02-13 08:51:00,
2013-02-13 00:56:00,41.1,37.8,30.31,WSW,252,0.0,0.0,88,0.00,,,0.00,Wunderground v.1.12,2013-02-13 08:56:00,
2013-02-13 01:01:00,40.9,37.6,30.31,WSW,252,0.0,0.0,88,0.00,,,0.00,Wunderground v.1.12,2013-02-13 09:01:00,
2013-02-13 01:07:00,40.8,37.5,30.31,WSW,252,0.0,0.0,88,0.00,,,0.00,Wunderground v.1.12,2013-02-13 09:07:00,
2013-02-13 01:12:00,40.6,37.3,30.31,WSW,252,0.0,0.0,88,0.00,,,0.00,Wunderground v.1.12,2013-02-13 09:12:00,
2013-02-13 01:17:00,40.3,37.0,30.31,WSW,252,0.0,0.0,88,0.00,,,0.00,Wunderground v.1.12,2013-02-13 09:17:00,
2013-02-13 01:22:00,40.3,37.3,30.31,WSW,252,0.0,0.0,89,0.00,,,0.00,Wunderground v.1.12,2013-02-13 09:22:00,
2013-02-13 01:28:00,40.1,36.8,30.31,WSW,252,0.0,0.0,88,0.00,,,0.00,Wunderground v.1.12,2013-02-13 09:28:00,
2013-02-13 01:33:00,39.9,36.9,30.31,WSW,252,0.0,0.0,89,0.00,,,0.00,Wunderground v.1.12,2013-02-13 09:33:00,
2013-02-13 01:39:00,39.8,36.8,30.31,WSW,252,0.0,0.0,89,0.00,,,0.00,Wunderground v.1.12,2013-02-13 09:39:00,
2013-02-13 01:44:00,39.6,36.6,30.31,WSW,252,0.0,0.0,89,0.00,,,0.00,Wunderground v.1.12,2013-02-13 09:44:00,
2013-02-13 01:49:00,39.6,36.9,30.30,WSW,252,0.0,0.0,90,0.00,,,0.00,Wunderground v.1.12,2013-02-13 09:49:00,
2013-02-13 01:54:00,39.6,36.9,30.30,WSW,252,0.0,0.0,90,0.00,,,0.00,Wunderground v.1.12,2013-02-13 09:54:00,
2013-02-13 02:00:00,39.6,36.9,30.30,WSW,252,0.0,0.0,90,0.00,,,0.00,Wunderground v.1.12,2013-02-13 10:00:00,
2013-02-13 02:05:00,39.6,36.9,30.30,WSW,252,0.0,0.0,90,0.00,,,0.00,Wunderground v.1.12,2013-02-13 10:05:00,
2013-02-13 02:10:00,39.6,36.9,30.30,WSW,252,0.0,0.0,90,0.00,,,0.00,Wunderground v.1.12,2013-02-13 10:10:00,
2013-02-13 02:15:00,39.8,37.1,30.30,WSW,252,0.0,0.0,90,0.00,,,0.00,Wunderground v.1.12,2013-02-13 10:15:00,
2013-02-13 02:21:00,39.6,36.9,30.30,WSW,252,0.0,0.0,90,0.00,,,0.00,Wunderground v.1.12,2013-02-13 10:21:00,
2013-02-13 02:25:00,39.6,36.9,30.30,WSW,252,0.0,0.0,90,0.00,,,0.00,Wunderground v.1.12,2013-02-13 10:25:00,
2013-02-13 02:30:00,39.6,36.9,30.30,WSW,252,0.0,0.0,90,0.00,,,0.00,Wunderground v.1.12,2013-02-13 10:30:00,
2013-02-13 02:36:00,39.6,36.9,30.30,WSW,252,0.0,0.0,90,0.00,,,0.00,Wunderground v.1.12,2013-02-13 10:36:00,
2013-02-13 02:41:00,39.5,36.8,30.30,WSW,252,0.0,0.0,90,0.00,,,0.00,Wunderground v.1.12,2013-02-13 10:41:00,
2013-02-13 02:46:00,39.3,36.6,30.30,WSW,252,0.0,0.0,90,0.00,,,0.00,Wunderground v.1.12,2013-02-13 10:46:00,
2013-02-13 02:51:00,39.2,36.5,30.30,WSW,252,0.0,0.0,90,0.00,,,0.00,Wunderground v.1.12,2013-02-13 10:51:00,
2013-02-13 02:56:00,39.1,36.4,30.30,WSW,252,0.0,0.0,90,0.00,,,0.00,Wunderground v.1.12,2013-02-13 10:56:00,
2013-02-13 03:01:00,39.1,36.4,30.29,WSW,252,0.0,0.0,90,0.00,,,0.00,Wunderground v.1.12,2013-02-13 11:01:00,
2013-02-13 03:06:00,38.9,36.2,30.29,WSW,252,0.0,0.0,90,0.00,,,0.00,Wunderground v.1.12,2013-02-13 11:06:00,
2013-02-13 03:11:00,38.9,36.2,30.29,WSW,253,0.0,0.0,90,0.00,,,0.00,Wunderground v.1.12,2013-02-13 11:11:00,
2013-02-13 03:16:00,38.8,36.1,30.29,WSW,252,0.0,0.0,90,0.00,,,0.00,Wunderground v.1.12,2013-02-13 11:16:00,
2013-02-13 03:21:00,38.8,36.1,30.29,WSW,252,0.0,0.0,90,0.00,,,0.00,Wunderground v.1.12,2013-02-13 11:21:00,
2013-02-13 03:26:00,38.8,36.1,30.29,WSW,252,0.0,0.0,90,0.00,,,0.00,Wunderground v.1.12,2013-02-13 11:26:00,
2013-02-13 03:31:00,38.6,35.9,30.28,WSW,252,0.0,0.0,90,0.00,,,0.00,Wunderground v.1.12,2013-02-13 11:31:00,
2013-02-13 03:36:00,38.5,35.8,30.28,WSW,252,0.0,0.0,90,0.00,,,0.00,Wunderground v.1.12,2013-02-13 11:36:00,
2013-02-13 03:41:00,38.5,35.8,30.28,WSW,252,0.0,0.0,90,0.00,,,0.00,Wunderground v.1.12,2013-02-13 11:41:00,
2013-02-13 03:46:00,38.3,35.6,30.28,WSW,253,0.0,0.0,90,0.00,,,0.00,Wunderground v.1.12,2013-02-13 11:46:00,
2013-02-13 03:51:00,38.3,35.3,30.28,WSW,253,0.0,0.0,89,0.00,,,0.00,Wunderground v.1.12,2013-02-13 11:51:00,
2013-02-13 03:56:00,38.3,35.3,30.28,WSW,252,0.0,0.0,89,0.00,,,0.00,Wunderground v.1.12,2013-02-13 11:56:00,
2013-02-13 04:01:00,38.2,35.2,30.28,WSW,252,0.0,0.0,89,0.00,,,0.00,Wunderground v.1.12,2013-02-13 12:01:00,
2013-02-13 04:07:00,38.2,35.2,30.28,WSW,252,0.0,0.0,89,0.00,,,0.00,Wunderground v.1.12,2013-02-13 12:07:00,
2013-02-13 04:12:00,38.0,35.0,30.28,WSW,252,0.0,0.0,89,0.00,,,0.00,Wunderground v.1.12,2013-02-13 12:12:00,
2013-02-13 04:17:00,37.9,35.2,30.29,WSW,252,0.0,0.0,90,0.00,,,0.00,Wunderground v.1.12,2013-02-13 12:17:00,
2013-02-13 04:22:00,37.8,35.1,30.29,WSW,252,0.0,0.0,90,0.00,,,0.00,Wunderground v.1.12,2013-02-13 12:22:00,
2013-02-13 04:27:00,37.6,34.9,30.29,WSW,252,0.0,0.0,90,0.00,,,0.00,Wunderground v.1.12,2013-02-13 12:27:00,
2013-02-13 04:32:00,37.6,34.9,30.28,WSW,252,0.0,0.0,90,0.00,,,0.00,Wunderground v.1.12,2013-02-13 12:32:00,
2013-02-13 04:37:00,37.5,34.8,30.28,WSW,252,0.0,0.0,90,0.00,,,0.00,Wunderground v.1.12,2013-02-13 12:37:00,
2013-02-13 04:42:00,37.3,34.6,30.28,WSW,252,0.0,0.0,90,0.00,,,0.00,Wunderground v.1.12,2013-02-13 12:42:00,
2013-02-13 04:47:00,37.3,34.6,30.29,WSW,252,0.0,0.0,90,0.00,,,0.00,Wunderground v.1.12,2013-02-13 12:47:00,
2013-02-13 04:53:00,37.3,34.6,30.29,WSW,252,0.0,0.0,90,0.00,,,0.00,Wunderground v.1.12,2013-02-13 12:53:00,
2013-02-13 04:58:00,37.6,35.2,30.29,WSW,252,0.0,0.0,91,0.00,,,0.00,Wunderground v.1.12,2013-02-13 12:58:00,
2013-02-13 05:04:00,37.9,35.5,30.29,WSW,252,0.0,0.0,91,0.00,,,0.00,Wunderground v.1.12,2013-02-13 13:04:00,
2013-02-13 05:09:00,37.9,35.5,30.29,WSW,252,0.0,0.0,91,0.00,,,0.00,Wunderground v.1.12,2013-02-13 13:09:00,
2013-02-13 05:14:00,37.9,35.5,30.29,WSW,252,0.0,0.0,91,0.00,,,0.00,Wunderground v.1.12,2013-02-13 13:14:00,
2013-02-13 05:19:00,37.8,35.4,30.29,WSW,252,0.0,0.0,91,0.00,,,0.00,Wunderground v.1.12,2013-02-13 13:19:00,
2013-02-13 05:24:00,37.6,35.2,30.29,WSW,252,0.0,0.0,91,0.00,,,0.00,Wunderground v.1.12,2013-02-13 13:24:00,
2013-02-13 05:29:00,37.6,35.2,30.29,WSW,252,0.0,0.0,91,0.00,,,0.00,Wunderground v.1.12,2013-02-13 13:29:00,
2013-02-13 05:34:00,37.5,35.1,30.29,WSW,252,0.0,0.0,91,0.00,,,0.00,Wunderground v.1.12,2013-02-13 13:34:00,
2013-02-13 05:39:00,37.5,35.1,30.29,WSW,252,0.0,0.0,91,0.00,,,0.00,Wunderground v.1.12,2013-02-13 13:39:00,
2013-02-13 05:45:00,37.5,35.1,30.29,WSW,252,0.0,0.0,91,0.00,,,0.00,Wunderground v.1.12,2013-02-13 13:45:00,
2013-02-13 05:50:00,37.5,35.1,30.29,WSW,252,0.0,0.0,91,0.00,,,0.00,Wunderground v.1.12,2013-02-13 13:50:00,
2013-02-13 05:55:00,37.6,35.2,30.29,WSW,252,0.0,0.0,91,0.00,,,0.00,Wunderground v.1.12,2013-02-13 13:55:00,
2013-02-13 06:00:00,37.6,35.2,30.30,WSW,252,0.0,0.0,91,0.00,,,0.00,Wunderground v.1.12,2013-02-13 14:00:00,
2013-02-13 06:06:00,37.5,35.1,30.30,WSW,252,0.0,0.0,91,0.00,,,0.00,Wunderground v.1.12,2013-02-13 14:06:00,
2013-02-13 06:11:00,37.5,35.1,30.30,WSW,252,0.0,0.0,91,0.00,,,0.00,Wunderground v.1.12,2013-02-13 14:11:00,
2013-02-13 06:16:00,37.5,35.1,30.30,WSW,252,0.0,0.0,91,0.00,,,0.00,Wunderground v.1.12,2013-02-13 14:16:00,
2013-02-13 06:21:00,37.5,35.1,30.30,WSW,252,0.0,0.0,91,0.00,,,0.00,Wunderground v.1.12,2013-02-13 14:21:00,
2013-02-13 06:26:00,37.5,35.1,30.30,WSW,253,0.0,0.0,91,0.00,,,0.00,Wunderground v.1.12,2013-02-13 14:26:00,
2013-02-13 06:31:00,37.5,35.1,30.30,WSW,253,0.0,0.0,91,0.00,,,0.00,Wunderground v.1.12,2013-02-13 14:31:00,
2013-02-13 06:36:00,37.3,34.9,30.30,WSW,253,0.0,0.0,91,0.00,,,0.00,Wunderground v.1.12,2013-02-13 14:36:00,
2013-02-13 06:41:00,37.0,34.6,30.30,WSW,253,0.0,0.0,91,0.00,,,0.00,Wunderground v.1.12,2013-02-13 14:41:00,
2013-02-13 06:46:00,36.8,34.4,30.30,WSW,253,0.0,0.0,91,0.00,,,0.00,Wunderground v.1.12,2013-02-13 14:46:00,
2013-02-13 06:51:00,36.6,34.2,30.30,WSW,253,0.0,0.0,91,0.00,,,0.00,Wunderground v.1.12,2013-02-13 14:51:00,
2013-02-13 06:57:00,36.6,34.2,30.30,WSW,253,0.0,0.0,91,0.00,,,0.00,Wunderground v.1.12,2013-02-13 14:57:00,
2013-02-13 07:02:00,36.8,34.7,30.30,WSW,253,0.0,0.0,92,0.00,,,0.00,Wunderground v.1.12,2013-02-13 15:02:00,
2013-02-13 07:07:00,37.0,34.9,30.30,WSW,253,0.0,0.0,92,0.00,,,0.00,Wunderground v.1.12,2013-02-13 15:07:00,
2013-02-13 07:12:00,37.0,34.6,30.30,WSW,253,0.0,0.0,91,0.00,,,0.00,Wunderground v.1.12,2013-02-13 15:12:00,
2013-02-13 07:17:00,36.6,34.2,30.31,WSW,253,0.0,0.0,91,0.00,,,0.00,Wunderground v.1.12,2013-02-13 15:17:00,
2013-02-13 07:22:00,36.6,34.2,30.31,WSW,253,0.0,0.0,91,0.00,,,0.00,Wunderground v.1.12,2013-02-13 15:22:00,
2013-02-13 07:27:00,36.6,34.5,30.31,WSW,253,0.0,0.0,92,0.00,,,0.00,Wunderground v.1.12,2013-02-13 15:27:00,
2013-02-13 07:32:00,36.8,34.7,30.32,WSW,253,0.0,0.0,92,0.00,,,0.00,Wunderground v.1.12,2013-02-13 15:32:00,
2013-02-13 07:37:00,37.0,34.9,30.32,WSW,253,0.0,0.0,92,0.00,,,0.00,Wunderground v.1.12,2013-02-13 15:37:00,
2013-02-13 07:42:00,37.0,34.9,30.32,WSW,253,0.0,0.0,92,0.00,,,0.00,Wunderground v.1.12,2013-02-13 15:42:00,
2013-02-13 07:47:00,37.3,35.2,30.32,WSW,253,0.0,0.0,92,0.00,,,0.00,Wunderground v.1.12,2013-02-13 15:47:00,
2013-02-13 07:52:00,37.6,35.5,30.32,WSW,253,0.0,0.0,92,0.00,,,0.00,Wunderground v.1.12,2013-02-13 15:52:00,
2013-02-13 07:58:00,38.0,36.2,30.32,WSW,253,0.0,0.0,93,0.00,,,0.00,Wunderground v.1.12,2013-02-13 15:58:00,
2013-02-13 08:03:00,38.8,36.7,30.32,WSW,253,0.0,0.0,92,0.00,,,0.00,Wunderground v.1.12,2013-02-13 16:03:00,
2013-02-13 08:08:00,39.2,36.8,30.32,WSW,253,0.0,0.0,91,0.00,,,0.00,Wunderground v.1.12,2013-02-13 16:08:00,
2013-02-13 08:13:00,39.2,36.5,30.32,WSW,253,0.0,0.0,90,0.00,,,0.00,Wunderground v.1.12,2013-02-13 16:13:00,
2013-02-13 08:18:00,39.3,36.6,30.32,WSW,253,0.0,0.0,90,0.00,,,0.00,Wunderground v.1.12,2013-02-13 16:18:00,
2013-02-13 08:23:00,39.6,36.9,30.32,WSW,253,0.0,0.0,90,0.00,,,0.00,Wunderground v.1.12,2013-02-13 16:23:00,
2013-02-13 08:28:00,39.9,36.9,30.32,WSW,253,0.0,0.0,89,0.00,,,0.00,Wunderground v.1.12,2013-02-13 16:28:00,
2013-02-13 08:33:00,40.2,37.2,30.32,WSW,253,0.0,0.0,89,0.00,,,0.00,Wunderground v.1.12,2013-02-13 16:33:00,
2013-02-13 08:38:00,40.5,37.5,30.32,WSW,253,0.0,0.0,89,0.00,,,0.00,Wunderground v.1.12,2013-02-13 16:38:00,
2013-02-13 08:44:00,40.8,37.8,30.32,WSW,253,0.0,0.0,89,0.00,,,0.00,Wunderground v.1.12,2013-02-13 16:44:00,
2013-02-13 08:49:00,41.1,37.8,30.32,WSW,253,0.0,0.0,88,0.00,,,0.00,Wunderground v.1.12,2013-02-13 16:49:00,
2013-02-13 08:54:00,41.3,37.7,30.32,WSW,253,0.0,0.0,87,0.00,,,0.00,Wunderground v.1.12,2013-02-13 16:54:00,
2013-02-13 08:59:00,41.9,38.3,30.32,WSW,253,0.0,0.0,87,0.00,,,0.00,Wunderground v.1.12,2013-02-13 16:59:00,
2013-02-13 09:04:00,42.2,38.3,30.32,WSW,253,0.0,0.0,86,0.00,,,0.00,Wunderground v.1.12,2013-02-13 17:04:00,
2013-02-13 09:09:00,42.9,38.7,30.32,WSW,253,0.0,0.0,85,0.00,,,0.00,Wunderground v.1.12,2013-02-13 17:09:00,
2013-02-13 09:15:00,43.9,39.4,30.32,WSW,253,0.0,0.0,84,0.00,,,0.00,Wunderground v.1.12,2013-02-13 17:15:00,
2013-02-13 09:20:00,44.6,39.8,30.33,WSW,253,0.0,0.0,83,0.00,,,0.00,Wunderground v.1.12,2013-02-13 17:20:00,
2013-02-13 09:25:00,45.4,39.9,30.33,WSW,253,0.0,0.0,81,0.00,,,0.00,Wunderground v.1.12,2013-02-13 17:25:00,
2013-02-13 09:30:00,46.1,39.9,30.32,WSW,253,0.0,0.0,79,0.00,,,0.00,Wunderground v.1.12,2013-02-13 17:30:00,
2013-02-13 09:35:00,46.4,40.6,30.32,WSW,253,0.0,0.0,80,0.00,,,0.00,Wunderground v.1.12,2013-02-13 17:35:00,
2013-02-13 09:40:00,47.0,40.8,30.32,WSW,253,0.0,0.0,79,0.00,,,0.00,Wunderground v.1.12,2013-02-13 17:40:00,
2013-02-13 09:45:00,47.9,41.0,30.32,WSW,253,0.0,0.0,77,0.00,,,0.00,Wunderground v.1.12,2013-02-13 17:45:00,
2013-02-13 09:50:00,48.0,41.1,30.32,WSW,253,0.0,0.0,77,0.00,,,0.00,Wunderground v.1.12,2013-02-13 17:50:00,
2013-02-13 09:55:00,48.5,41.3,30.32,WSW,253,0.0,0.0,76,0.00,,,0.00,Wunderground v.1.12,2013-02-13 17:55:00,
2013-02-13 10:00:00,49.2,42.0,30.32,WSW,253,0.0,0.0,76,0.00,,,0.00,Wunderground v.1.12,2013-02-13 18:00:00,
2013-02-13 10:05:00,49.9,41.9,30.32,WSW,253,0.0,0.0,74,0.00,,,0.00,Wunderground v.1.12,2013-02-13 18:05:00,
2013-02-13 10:10:00,50.5,42.5,30.32,WSW,253,0.0,0.0,74,0.00,,,0.00,Wunderground v.1.12,2013-02-13 18:10:00,
2013-02-13 10:15:00,51.3,42.9,30.32,WSW,253,0.0,0.0,73,0.00,,,0.00,Wunderground v.1.12,2013-02-13 18:15:00,
2013-02-13 10:21:00,52.0,43.3,30.32,WSW,253,0.0,0.0,72,0.00,,,0.00,Wunderground v.1.12,2013-02-13 18:21:00,
2013-02-13 10:25:00,52.6,43.1,30.32,WSW,253,0.0,0.0,70,0.00,,,0.00,Wunderground v.1.12,2013-02-13 18:25:00,
2013-02-13 10:31:00,53.3,43.4,30.32,WSW,253,0.0,0.0,69,0.00,,,0.00,Wunderground v.1.12,2013-02-13 18:31:00,
2013-02-13 10:36:00,53.8,43.9,30.32,WSW,253,0.0,0.0,69,0.00,,,0.00,Wunderground v.1.12,2013-02-13 18:36:00,
2013-02-13 10:41:00,54.5,44.5,30.32,WSW,253,0.0,0.0,69,0.00,,,0.00,Wunderground v.1.12,2013-02-13 18:41:00,
2013-02-13 10:46:00,55.1,43.9,30.31,WSW,253,0.0,0.0,66,0.00,,,0.00,Wunderground v.1.12,2013-02-13 18:46:00,
2013-02-13 10:51:00,55.7,44.5,30.31,WSW,253,0.0,0.0,66,0.00,,,0.00,Wunderground v.1.12,2013-02-13 18:51:00,
2013-02-13 10:56:00,56.0,44.0,30.31,WSW,253,0.0,0.0,64,0.00,,,0.00,Wunderground v.1.12,2013-02-13 18:56:00,
2013-02-13 11:01:00,56.2,44.2,30.31,WSW,253,0.0,0.0,64,0.00,,,0.00,Wunderground v.1.12,2013-02-13 19:01:00,
2013-02-13 11:06:00,56.7,44.2,30.31,WSW,253,0.0,0.0,63,0.00,,,0.00,Wunderground v.1.12,2013-02-13 19:06:00,
2013-02-13 11:12:00,57.3,44.8,30.31,WSW,253,0.0,0.0,63,0.00,,,0.00,Wunderground v.1.12,2013-02-13 19:12:00,
2013-02-13 11:17:00,57.8,44.4,30.30,WSW,253,0.0,0.0,61,0.00,,,0.00,Wunderground v.1.12,2013-02-13 19:17:00,
2013-02-13 11:22:00,58.1,44.7,30.30,WSW,254,0.0,0.0,61,0.00,,,0.00,Wunderground v.1.12,2013-02-13 19:22:00,
2013-02-13 11:27:00,58.3,43.6,30.30,WSW,254,0.0,0.0,58,0.00,,,0.00,Wunderground v.1.12,2013-02-13 19:27:00,
2013-02-13 11:32:00,58.4,44.1,30.30,WSW,254,0.0,0.0,59,0.00,,,0.00,Wunderground v.1.12,2013-02-13 19:32:00,
2013-02-13 11:37:00,58.7,44.0,30.30,WSW,254,0.0,0.0,58,0.00,,,0.00,Wunderground v.1.12,2013-02-13 19:37:00,
2013-02-13 11:42:00,59.3,45.0,30.30,WSW,254,0.0,0.0,59,0.00,,,0.00,Wunderground v.1.12,2013-02-13 19:42:00,
2013-02-13 11:47:00,59.8,44.1,30.29,WSW,254,0.0,0.0,56,0.00,,,0.00,Wunderground v.1.12,2013-02-13 19:47:00,
2013-02-13 11:52:00,59.9,44.6,30.29,WSW,257,0.0,0.0,57,0.00,,,0.00,Wunderground v.1.12,2013-02-13 19:52:00,
2013-02-13 11:58:00,60.4,44.2,30.29,WSW,257,0.0,0.0,55,0.00,,,0.00,Wunderground v.1.12,2013-02-13 19:58:00,
2013-02-13 12:03:00,60.7,44.4,30.28,WSW,257,0.0,0.0,55,0.00,,,0.00,Wunderground v.1.12,2013-02-13 20:03:00,
2013-02-13 12:08:00,61.0,44.7,30.28,WSW,257,0.0,0.0,55,0.00,,,0.00,Wunderground v.1.12,2013-02-13 20:08:00,
2013-02-13 12:13:00,61.5,44.2,30.28,WSW,257,0.0,3.0,53,0.00,,,0.00,Wunderground v.1.12,2013-02-13 20:13:00,
2013-02-13 12:18:00,62.0,44.7,30.28,WSW,257,0.0,0.0,53,0.00,,,0.00,Wunderground v.1.12,2013-02-13 20:18:00,
2013-02-13 12:24:00,62.9,46.0,30.28,WSW,257,0.0,0.0,54,0.00,,,0.00,Wunderground v.1.12,2013-02-13 20:24:00,
2013-02-13 12:29:00,63.5,44.5,30.28,SSE,155,0.0,5.0,50,0.00,,,0.00,Wunderground v.1.12,2013-02-13 20:29:00,
2013-02-13 12:34:00,64.0,45.0,30.26,SSE,155,0.0,4.0,50,0.00,,,0.00,Wunderground v.1.12,2013-02-13 20:34:00,
2013-02-13 12:39:00,64.3,45.8,30.26,SE,144,0.0,4.0,51,0.00,,,0.00,Wunderground v.1.12,2013-02-13 20:39:00,
2013-02-13 12:44:00,64.5,44.9,30.26,SE,144,0.0,2.0,49,0.00,,,0.00,Wunderground v.1.12,2013-02-13 20:44:00,
2013-02-13 12:49:00,64.5,45.4,30.26,SSE,167,3.0,4.0,50,0.00,,,0.00,Wunderground v.1.12,2013-02-13 20:49:00,
2013-02-13 12:55:00,64.5,43.8,30.26,South,170,0.0,1.0,47,0.00,,,0.00,Wunderground v.1.12,2013-02-13 20:55:00,
2013-02-13 13:00:00,64.5,44.4,30.26,South,174,0.0,1.0,48,0.00,,,0.00,Wunderground v.1.12,2013-02-13 21:00:00,
2013-02-13 13:05:00,64.8,44.1,30.25,South,174,0.0,0.0,47,0.00,,,0.00,Wunderground v.1.12,2013-02-13 21:05:00,
2013-02-13 13:10:00,65.3,44.0,30.25,South,174,0.0,0.0,46,0.00,,,0.00,Wunderground v.1.12,2013-02-13 21:10:00,
2013-02-13 13:15:00,65.8,44.4,30.25,South,173,3.0,3.0,46,0.00,,,0.00,Wunderground v.1.12,2013-02-13 21:15:00,
2013-02-13 13:20:00,65.5,43.6,30.25,South,173,0.0,0.0,45,0.00,,,0.00,Wunderground v.1.12,2013-02-13 21:20:00,
2013-02-13 13:25:00,64.8,43.5,30.25,South,169,0.0,3.0,46,0.00,,,0.00,Wunderground v.1.12,2013-02-13 21:25:00,
2013-02-13 13:30:00,64.7,44.0,30.23,SSE,168,3.0,3.0,47,0.00,,,0.00,Wunderground v.1.12,2013-02-13 21:30:00,
2013-02-13 13:35:00,64.3,43.1,30.23,SE,142,1.0,1.0,46,0.00,,,0.00,Wunderground v.1.12,2013-02-13 21:35:00,
2013-02-13 13:40:00,64.5,43.3,30.23,SE,142,0.0,1.0,46,0.00,,,0.00,Wunderground v.1.12,2013-02-13 21:40:00,
2013-02-13 13:45:00,64.5,43.3,30.22,SE,142,0.0,3.0,46,0.00,,,0.00,Wunderground v.1.12,2013-02-13 21:45:00,
2013-02-13 13:51:00,64.7,44.0,30.22,SE,142,0.0,0.0,47,0.00,,,0.00,Wunderground v.1.12,2013-02-13 21:51:00,
2013-02-13 13:56:00,65.2,43.9,30.22,SE,143,0.0,0.0,46,0.00,,,0.00,Wunderground v.1.12,2013-02-13 21:56:00,
2013-02-13 14:01:00,65.3,43.4,30.22,SE,143,0.0,0.0,45,0.00,,,0.00,Wunderground v.1.12,2013-02-13 22:01:00,
2013-02-13 14:06:00,65.6,43.7,30.22,SE,143,0.0,0.0,45,0.00,,,0.00,Wunderground v.1.12,2013-02-13 22:06:00,
2013-02-13 14:11:00,65.8,44.4,30.22,SE,144,0.0,0.0,46,0.00,,,0.00,Wunderground v.1.12,2013-02-13 22:11:00,
2013-02-13 14:16:00,65.8,43.9,30.21,SE,144,0.0,0.0,45,0.00,,,0.00,Wunderground v.1.12,2013-02-13 22:16:00,
2013-02-13 14:21:00,66.0,43.5,30.21,SE,144,0.0,0.0,44,0.00,,,0.00,Wunderground v.1.12,2013-02-13 22:21:00,
2013-02-13 14:26:00,66.0,43.5,30.21,SE,144,0.0,0.0,44,0.00,,,0.00,Wunderground v.1.12,2013-02-13 22:26:00,
2013-02-13 14:32:00,66.1,44.1,30.20,SE,144,0.0,0.0,45,0.00,,,0.00,Wunderground v.1.12,2013-02-13 22:32:00,
2013-02-13 14:37:00,66.3,44.9,30.20,South,178,0.0,0.0,46,0.00,,,0.00,Wunderground v.1.12,2013-02-13 22:37:00,
2013-02-13 14:42:00,66.4,44.4,30.20,South,181,0.0,3.0,45,0.00,,,0.00,Wunderground v.1.12,2013-02-13 22:42:00,
2013-02-13 14:47:00,66.8,44.8,30.20,South,183,0.0,0.0,45,0.00,,,0.00,Wunderground v.1.12,2013-02-13 22:47:00,
2013-02-13 14:52:00,66.9,45.4,30.20,South,190,0.0,1.0,46,0.00,,,0.00,Wunderground v.1.12,2013-02-13 22:52:00,
2013-02-13 14:57:00,67.1,44.4,30.20,SSW,193,0.0,3.0,44,0.00,,,0.00,Wunderground v.1.12,2013-02-13 22:57:00,
2013-02-13 15:03:00,66.8,44.8,30.19,SSW,200,0.0,1.0,45,0.00,,,0.00,Wunderground v.1.12,2013-02-13 23:03:00,
2013-02-13 15:08:00,66.9,45.4,30.19,SSW,200,0.0,0.0,46,0.00,,,0.00,Wunderground v.1.12,2013-02-13 23:08:00,
2013-02-13 15:13:00,66.9,44.3,30.19,SSW,195,0.0,5.0,44,0.00,,,0.00,Wunderground v.1.12,2013-02-13 23:13:00,
2013-02-13 15:18:00,67.1,45.0,30.19,SSW,213,0.0,1.0,45,0.00,,,0.00,Wunderground v.1.12,2013-02-13 23:18:00,
2013-02-13 15:23:00,67.1,45.0,30.19,SSW,213,0.0,3.0,45,0.00,,,0.00,Wunderground v.1.12,2013-02-13 23:23:00,
2013-02-13 15:28:00,67.1,45.0,30.19,SSW,211,4.0,4.0,45,0.00,,,0.00,Wunderground v.1.12,2013-02-13 23:28:00,
2013-02-13 15:33:00,67.1,45.0,30.19,South,191,3.0,4.0,45,0.00,,,0.00,Wunderground v.1.12,2013-02-13 23:33:00,
2013-02-13 15:38:00,66.9,45.4,30.19,SSW,207,2.0,5.0,46,0.00,,,0.00,Wunderground v.1.12,2013-02-13 23:38:00,
2013-02-13 15:44:00,67.1,46.2,30.19,SSW,207,0.0,1.0,47,0.00,,,0.00,Wunderground v.1.12,2013-02-13 23:44:00,
2013-02-13 15:49:00,67.1,45.6,30.19,South,191,0.0,5.0,46,0.00,,,0.00,Wunderground v.1.12,2013-02-13 23:49:00,
2013-02-13 15:54:00,66.9,45.4,30.19,South,191,0.0,3.0,46,0.00,,,0.00,Wunderground v.1.12,2013-02-13 23:54:00,
2013-02-13 15:59:00,66.9,45.4,30.19,South,175,2.0,6.0,46,0.00,,,0.00,Wunderground v.1.12,2013-02-13 23:59:00,
2013-02-13 16:04:00,66.8,45.9,30.18,South,183,0.0,5.0,47,0.00,,,0.00,Wunderground v.1.12,2013-02-14 00:04:00,
2013-02-13 16:10:00,66.6,46.8,30.18,South,183,0.0,1.0,49,0.00,,,0.00,Wunderground v.1.12,2013-02-14 00:10:00,
2013-02-13 16:15:00,66.6,45.7,30.18,South,188,0.0,0.0,47,0.00,,,0.00,Wunderground v.1.12,2013-02-14 00:15:00,
2013-02-13 16:20:00,66.4,46.1,30.18,South,190,0.0,1.0,48,0.00,,,0.00,Wunderground v.1.12,2013-02-14 00:20:00,
2013-02-13 16:25:00,66.1,46.4,30.18,SSW,194,0.0,0.0,49,0.00,,,0.00,Wunderground v.1.12,2013-02-14 00:25:00,
2013-02-13 16:30:00,66.0,45.7,30.18,South,190,2.0,3.0,48,0.00,,,0.00,Wunderground v.1.12,2013-02-14 00:30:00,
2013-02-13 16:35:00,65.6,45.4,30.18,South,177,0.0,2.0,48,0.00,,,0.00,Wunderground v.1.12,2013-02-14 00:35:00,
2013-02-13 16:40:00,65.3,45.6,30.18,SSW,205,1.0,1.0,49,0.00,,,0.00,Wunderground v.1.12,2013-02-14 00:40:00,
2013-02-13 16:45:00,64.8,45.7,30.18,South,170,0.0,5.0,50,0.00,,,0.00,Wunderground v.1.12,2013-02-14 00:45:00,
2013-02-13 16:50:00,64.5,46.5,30.18,South,188,3.0,3.0,52,0.00,,,0.00,Wunderground v.1.12,2013-02-14 00:50:00,
2013-02-13 16:56:00,64.2,46.2,30.18,SSW,196,0.0,1.0,52,0.00,,,0.00,Wunderground v.1.12,2013-02-14 00:56:00,
2013-02-13 17:01:00,63.9,45.9,30.18,South,181,1.0,5.0,52,0.00,,,0.00,Wunderground v.1.12,2013-02-14 01:01:00,
2013-02-13 17:06:00,63.4,45.5,30.18,South,184,0.0,2.0,52,0.00,,,0.00,Wunderground v.1.12,2013-02-14 01:06:00,
2013-02-13 17:11:00,62.7,45.3,30.18,South,180,0.0,3.0,53,0.00,,,0.00,Wunderground v.1.12,2013-02-14 01:11:00,
2013-02-13 17:16:00,62.3,44.9,30.18,South,179,3.0,3.0,53,0.00,,,0.00,Wunderground v.1.12,2013-02-14 01:16:00,
2013-02-13 17:22:00,61.8,44.5,30.18,South,184,0.0,4.0,53,0.00,,,0.00,Wunderground v.1.12,2013-02-14 01:22:00,
2013-02-13 17:27:00,61.3,44.0,30.18,South,189,1.0,5.0,53,0.00,,,0.00,Wunderground v.1.12,2013-02-14 01:27:00,
2013-02-13 17:32:00,60.7,43.5,30.19,South,173,5.0,5.0,53,0.00,,,0.00,Wunderground v.1.12,2013-02-14 01:32:00,
2013-02-13 17:37:00,60.1,43.4,30.19,SSW,192,1.0,4.0,54,0.00,,,0.00,Wunderground v.1.12,2013-02-14 01:37:00,
2013-02-13 17:42:00,59.5,43.3,30.19,South,187,3.0,7.0,55,0.00,,,0.00,Wunderground v.1.12,2013-02-14 01:42:00,
2013-02-13 17:47:00,58.9,43.2,30.18,South,189,3.0,5.0,56,0.00,,,0.00,Wunderground v.1.12,2013-02-14 01:47:00,
2013-02-13 17:52:00,58.4,43.2,30.18,SSW,202,3.0,6.0,57,0.00,,,0.00,Wunderground v.1.12,2013-02-14 01:52:00,
2013-02-13 17:57:00,58.0,43.3,30.18,South,182,2.0,5.0,58,0.00,,,0.00,Wunderground v.1.12,2013-02-14 01:57:00,
2013-02-13 18:03:00,57.5,43.3,30.19,SSW,196,2.0,5.0,59,0.00,,,0.00,Wunderground v.1.12,2013-02-14 02:03:00,
2013-02-13 18:08:00,57.0,42.8,30.19,SSW,194,4.0,5.0,59,0.00,,,0.00,Wunderground v.1.12,2013-02-14 02:08:00,
2013-02-13 18:13:00,56.6,43.3,30.19,South,190,0.0,6.0,61,0.00,,,0.00,Wunderground v.1.12,2013-02-14 02:13:00,
2013-02-13 18:18:00,56.3,43.4,30.19,South,183,6.0,6.0,62,0.00,,,0.00,Wunderground v.1.12,2013-02-14 02:18:00,
2013-02-13 18:23:00,55.9,43.5,30.19,South,177,0.0,6.0,63,0.00,,,0.00,Wunderground v.1.12,2013-02-14 02:23:00,
2013-02-13 18:28:00,55.6,43.6,30.19,SSW,196,1.0,5.0,64,0.00,,,0.00,Wunderground v.1.12,2013-02-14 02:28:00,
2013-02-13 18:34:00,55.1,43.1,30.19,South,186,0.0,4.0,64,0.00,,,0.00,Wunderground v.1.12,2013-02-14 02:34:00,
2013-02-13 18:39:00,54.8,43.3,30.19,South,185,2.0,3.0,65,0.00,,,0.00,Wunderground v.1.12,2013-02-14 02:39:00,
2013-02-13 18:44:00,54.5,43.0,30.19,South,186,0.0,1.0,65,0.00,,,0.00,Wunderground v.1.12,2013-02-14 02:44:00,
2013-02-13 18:49:00,54.2,42.7,30.20,South,186,0.0,4.0,65,0.00,,,0.00,Wunderground v.1.12,2013-02-14 02:49:00,
2013-02-13 18:54:00,53.9,42.4,30.20,South,186,0.0,0.0,65,0.00,,,0.00,Wunderground v.1.12,2013-02-14 02:54:00,
2013-02-13 18:59:00,53.6,42.5,30.20,South,186,0.0,0.0,66,0.00,,,0.00,Wunderground v.1.12,2013-02-14 02:59:00,
2013-02-13 19:04:00,53.3,42.2,30.20,South,186,0.0,0.0,66,0.00,,,0.00,Wunderground v.1.12,2013-02-14 03:04:00,
2013-02-13 19:09:00,53.2,42.5,30.20,South,186,0.0,0.0,67,0.00,,,0.00,Wunderground v.1.12,2013-02-14 03:09:00,
2013-02-13 19:14:00,52.9,42.2,30.20,South,186,0.0,1.0,67,0.00,,,0.00,Wunderground v.1.12,2013-02-14 03:14:00,
2013-02-13 19:20:00,52.8,42.1,30.20,South,186,0.0,0.0,67,0.00,,,0.00,Wunderground v.1.12,2013-02-14 03:20:00,
2013-02-13 19:25:00,52.5,42.2,30.20,South,186,0.0,0.0,68,0.00,,,0.00,Wunderground v.1.12,2013-02-14 03:25:00,
2013-02-13 19:30:00,52.2,42.3,30.20,South,186,0.0,0.0,69,0.00,,,0.00,Wunderground v.1.12,2013-02-14 03:30:00,
2013-02-13 19:35:00,51.9,42.4,30.20,South,186,0.0,0.0,70,0.00,,,0.00,Wunderground v.1.12,2013-02-14 03:35:00,
2013-02-13 19:40:00,51.6,42.1,30.20,South,186,0.0,0.0,70,0.00,,,0.00,Wunderground v.1.12,2013-02-14 03:40:00,
2013-02-13 19:45:00,51.4,42.3,30.21,South,186,0.0,0.0,71,0.00,,,0.00,Wunderground v.1.12,2013-02-14 03:45:00,
2013-02-13 19:51:00,51.1,42.4,30.21,South,186,0.0,0.0,72,0.00,,,0.00,Wunderground v.1.12,2013-02-14 03:51:00,
2013-02-13 19:56:00,50.8,42.1,30.21,South,186,0.0,0.0,72,0.00,,,0.00,Wunderground v.1.12,2013-02-14 03:56:00,
2013-02-13 20:01:00,50.4,42.1,30.21,South,186,0.0,0.0,73,0.00,,,0.00,Wunderground v.1.12,2013-02-14 04:01:00,
2013-02-13 20:06:00,50.2,41.9,30.21,South,186,0.0,0.0,73,0.00,,,0.00,Wunderground v.1.12,2013-02-14 04:06:00,
2013-02-13 20:11:00,50.1,42.1,30.21,South,186,0.0,0.0,74,0.00,,,0.00,Wunderground v.1.12,2013-02-14 04:11:00,
2013-02-13 20:16:00,49.9,41.9,30.21,South,186,0.0,0.0,74,0.00,,,0.00,Wunderground v.1.12,2013-02-14 04:16:00,
2013-02-13 20:21:00,49.9,41.9,30.21,South,186,0.0,0.0,74,0.00,,,0.00,Wunderground v.1.12,2013-02-14 04:21:00,
2013-02-13 20:26:00,49.8,42.2,30.21,South,186,0.0,0.0,75,0.00,,,0.00,Wunderground v.1.12,2013-02-14 04:26:00,
2013-02-13 20:31:00,49.6,42.0,30.21,South,186,0.0,2.0,75,0.00,,,0.00,Wunderground v.1.12,2013-02-14 04:31:00,
2013-02-13 20:37:00,49.5,41.9,30.21,South,186,0.0,2.0,75,0.00,,,0.00,Wunderground v.1.12,2013-02-14 04:37:00,
2013-02-13 20:42:00,49.5,41.9,30.21,South,186,0.0,0.0,75,0.00,,,0.00,Wunderground v.1.12,2013-02-14 04:42:00,
2013-02-13 20:47:00,49.5,42.2,30.21,South,186,0.0,0.0,76,0.00,,,0.00,Wunderground v.1.12,2013-02-14 04:47:00,
2013-02-13 20:52:00,49.4,42.1,30.21,SSW,192,0.0,0.0,76,0.00,,,0.00,Wunderground v.1.12,2013-02-14 04:52:00,
2013-02-13 20:57:00,49.4,42.1,30.21,SSW,192,0.0,0.0,76,0.00,,,0.00,Wunderground v.1.12,2013-02-14 04:57:00,
2013-02-13 21:00:00,49.5,42.2,30.21,SSW,192,0.0,0.0,76,0.00,,,0.00,Wunderground v.1.12,2013-02-14 05:00:00,
2013-02-13 21:05:00,49.5,41.9,30.20,SSW,192,0.0,0.0,75,0.00,,,0.00,Wunderground v.1.12,2013-02-14 05:05:00,
2013-02-13 21:10:00,49.5,41.9,30.20,SSW,192,0.0,0.0,75,0.00,,,0.00,Wunderground v.1.12,2013-02-14 05:10:00,
2013-02-13 21:15:00,49.5,41.9,30.20,SSW,192,0.0,0.0,75,0.00,,,0.00,Wunderground v.1.12,2013-02-14 05:15:00,
2013-02-13 21:21:00,49.4,41.8,30.20,SSW,192,0.0,0.0,75,0.00,,,0.00,Wunderground v.1.12,2013-02-14 05:21:00,
2013-02-13 21:26:00,49.1,41.9,30.20,SSW,192,0.0,0.0,76,0.00,,,0.00,Wunderground v.1.12,2013-02-14 05:26:00,
2013-02-13 21:31:00,48.8,41.6,30.20,SSW,192,0.0,0.0,76,0.00,,,0.00,Wunderground v.1.12,2013-02-14 05:31:00,
2013-02-13 21:36:00,48.6,41.7,30.20,SSW,192,0.0,0.0,77,0.00,,,0.00,Wunderground v.1.12,2013-02-14 05:36:00,
2013-02-13 21:41:00,48.3,41.4,30.20,SSW,192,0.0,0.0,77,0.00,,,0.00,Wunderground v.1.12,2013-02-14 05:41:00,
2013-02-13 21:46:00,48.2,41.3,30.20,SSW,192,0.0,0.0,77,0.00,,,0.00,Wunderground v.1.12,2013-02-14 05:46:00,
2013-02-13 21:51:00,48.0,41.5,30.20,SSW,192,0.0,0.0,78,0.00,,,0.00,Wunderground v.1.12,2013-02-14 05:51:00,
2013-02-13 21:56:00,48.0,41.5,30.20,SSW,192,0.0,0.0,78,0.00,,,0.00,Wunderground v.1.12,2013-02-14 05:56:00,
2013-02-13 22:01:00,47.9,41.4,30.20,SSW,192,0.0,0.0,78,0.00,,,0.00,Wunderground v.1.12,2013-02-14 06:01:00,
2013-02-13 22:07:00,47.9,41.7,30.20,SSW,192,0.0,0.0,79,0.00,,,0.00,Wunderground v.1.12,2013-02-14 06:07:00,
2013-02-13 22:12:00,47.7,41.5,30.20,SSW,192,0.0,0.0,79,0.00,,,0.00,Wunderground v.1.12,2013-02-14 06:12:00,
2013-02-13 22:17:00,47.6,41.7,30.20,SSW,192,0.0,0.0,80,0.00,,,0.00,Wunderground v.1.12,2013-02-14 06:17:00,
2013-02-13 22:22:00,47.6,41.7,30.20,SSW,192,0.0,0.0,80,0.00,,,0.00,Wunderground v.1.12,2013-02-14 06:22:00,
2013-02-13 22:27:00,47.4,41.5,30.20,SSW,192,0.0,0.0,80,0.00,,,0.00,Wunderground v.1.12,2013-02-14 06:27:00,
2013-02-13 22:32:00,47.3,41.4,30.21,SSW,192,0.0,0.0,80,0.00,,,0.00,Wunderground v.1.12,2013-02-14 06:32:00,
2013-02-13 22:38:00,47.1,41.2,30.21,SSW,192,0.0,0.0,80,0.00,,,0.00,Wunderground v.1.12,2013-02-14 06:38:00,
2013-02-13 22:43:00,47.0,41.1,30.21,SSW,192,0.0,0.0,80,0.00,,,0.00,Wunderground v.1.12,2013-02-14 06:43:00,
2013-02-13 22:48:00,46.7,41.2,30.20,SSW,192,0.0,0.0,81,0.00,,,0.00,Wunderground v.1.12,2013-02-14 06:48:00,
2013-02-13 22:53:00,46.5,41.0,30.20,SSW,192,0.0,0.0,81,0.00,,,0.00,Wunderground v.1.12,2013-02-14 06:53:00,
2013-02-13 22:58:00,46.4,40.9,30.20,SSW,192,0.0,0.0,81,0.00,,,0.00,Wunderground v.1.12,2013-02-14 06:58:00,
2013-02-13 23:03:00,46.2,41.0,30.21,SSW,192,0.0,0.0,82,0.00,,,0.00,Wunderground v.1.12,2013-02-14 07:03:00,
2013-02-13 23:08:00,46.0,40.8,30.21,SSW,192,0.0,0.0,82,0.00,,,0.00,Wunderground v.1.12,2013-02-14 07:08:00,
2013-02-13 23:13:00,45.8,40.9,30.21,SSW,192,0.0,0.0,83,0.00,,,0.00,Wunderground v.1.12,2013-02-14 07:13:00,
2013-02-13 23:19:00,45.7,40.8,30.21,SSW,192,0.0,0.0,83,0.00,,,0.00,Wunderground v.1.12,2013-02-14 07:19:00,
2013-02-13 23:24:00,45.7,40.8,30.21,SSW,192,0.0,0.0,83,0.00,,,0.00,Wunderground v.1.12,2013-02-14 07:24:00,
2013-02-13 23:29:00,45.5,40.9,30.21,SSW,192,0.0,0.0,84,0.00,,,0.00,Wunderground v.1.12,2013-02-14 07:29:00,
2013-02-13 23:34:00,45.2,40.7,30.21,SSW,192,0.0,0.0,84,0.00,,,0.00,Wunderground v.1.12,2013-02-14 07:34:00,
2013-02-13 23:40:00,45.1,40.6,30.21,SSW,192,0.0,0.0,84,0.00,,,0.00,Wunderground v.1.12,2013-02-14 07:40:00,
2013-02-13 23:45:00,44.9,40.4,30.20,SSW,192,0.0,0.0,84,0.00,,,0.00,Wunderground v.1.12,2013-02-14 07:45:00,
2013-02-13 23:50:00,44.6,40.1,30.20,SSW,192,0.0,2.0,84,0.00,,,0.00,Wunderground v.1.12,2013-02-14 07:50:00,
2013-02-13 23:55:00,44.3,40.1,30.20,SSW,192,0.0,0.0,85,0.00,,,0.00,Wunderground v.1.12,2013-02-14 07:55:00,